Darstellungsparameter: Aktuell verwendete Einstellungen:
Skalierung der Graphiken ... ?
xyx+y,   Skalierungsfaktor:      Skalierung: Modus: x, Faktor: 1
Darstellungszeitraum ... ?
Vom - - bis: - -   Zeitraum: 22.04.2021 - 22.04.2021
Min/Max/Avg-Anzeige ... ?
Zeige MMA aktuell
Zeige MMA Monat
Zeige MMA alles
Zeige --A aktuell
Zeige --A Monat
Zeige --A alles
Keine MMA-Anzeige
MMA:
Average (ber die Originaldaten)
MMA-Basis: 23.02.2003 - 30.09.2020
Quicknavigation für Darstellung... ?
Tage:      1T, 2T, 3T, 5T -1T -2T -3T -5T +1T +2T +3T +5T
Wochen: 1W, 2W, 3W -1W -2W -3W +1W +2W +3W
Monate: 1M, 3M, 6M -1M -3M -6M +1M +3M +6M
Jahre:    1J, 3J, 5J, 10J -1J -3J -5J -10J +1J +3J +5J +10J
Nutze für die Darstellung ... ?
Originaldaten oder Mittelwerte auf ...
Stundenbasis Tagesbasis Wochenbasis
Monatsbasis Jahresbasis      Datenbasis: Original-Daten
Darstellen als:
Statistik (Auto) Statistik J:M      Darstellung:

Der gewünschte Datumsbereich war nicht gültig/verfügbar und wurde korrigiert....
Das angegebene Enddatum (29.06.2023 23:59:59) liegt in der Zukunft.
Das angegebene Startdatum (30.05.2023 00:00:00) liegt in der Zukunft.


Zur Graphik,    zurück zur Übersicht aller Sensoren.
 
Tabellarische Datenbersicht: ?
 
Sensor: Nr:Datum:Temp:Abs-Feuchte:Windchill:Wind:
Aussen-T/F 1 22-04-2021 02:00:00 8.7 C 6.49 g/m*3 8.7 C 3.2 km/h
2 22-04-2021 02:05:00 8.6 C 6.44 g/m*3 8.6 C 1.6 km/h
3 22-04-2021 02:10:00 8.4 C 6.36 g/m*3 8.4 C 0 km/h
4 22-04-2021 02:15:00 8.3 C 6.41 g/m*3 7.41 C 6.4 km/h
5 22-04-2021 02:20:00 8.2 C 6.36 g/m*3 8.2 C 4.8 km/h
6 22-04-2021 02:25:00 8.1 C 6.32 g/m*3 6.42 C 9.7 km/h
7 22-04-2021 02:30:00 8.1 C 6.24 g/m*3 6.13 C 11.3 km/h
8 22-04-2021 02:35:00 8 C 6.12 g/m*3 6.01 C 11.3 km/h
9 22-04-2021 02:40:00 7.9 C 6.08 g/m*3 5.39 C 14.5 km/h
10 22-04-2021 02:45:00 7.9 C 6 g/m*3 5.39 C 14.5 km/h
11 22-04-2021 02:50:00 7.8 C 5.96 g/m*3 7.8 C 4.8 km/h
12 22-04-2021 02:55:00 7.7 C 5.92 g/m*3 6.28 C 8.1 km/h
13 22-04-2021 03:00:00 7.6 C 5.88 g/m*3 5.53 C 11.3 km/h
14 22-04-2021 03:05:00 7.6 C 5.88 g/m*3 7.6 C 4.8 km/h
15 22-04-2021 03:10:00 7.4 C 5.81 g/m*3 5.93 C 8.1 km/h
16 22-04-2021 03:15:00 7.3 C 5.77 g/m*3 5.47 C 9.7 km/h
17 22-04-2021 03:20:00 7.2 C 5.73 g/m*3 5.69 C 8.1 km/h
18 22-04-2021 03:25:00 7.1 C 5.69 g/m*3 5.23 C 9.7 km/h
19 22-04-2021 03:30:00 7 C 5.58 g/m*3 5.9 C 6.4 km/h
20 22-04-2021 03:35:00 6.9 C 5.54 g/m*3 5.34 C 8.1 km/h
21 22-04-2021 03:40:00 6.8 C 5.51 g/m*3 4.87 C 9.7 km/h
22 22-04-2021 03:45:00 6.7 C 5.47 g/m*3 5.11 C 8.1 km/h
23 22-04-2021 03:50:00 6.6 C 5.44 g/m*3 4.99 C 8.1 km/h
24 22-04-2021 03:55:00 6.5 C 5.47 g/m*3 4.87 C 8.1 km/h
25 22-04-2021 04:00:00 6.4 C 5.44 g/m*3 6.4 C 3.2 km/h
Sensor: Nr:Datum:Temp:Abs-Feuchte:Windchill:Wind:
Aussen-T/F 26 22-04-2021 04:05:00 6.3 C 5.4 g/m*3 5.1 C 6.4 km/h
27 22-04-2021 04:10:00 6.2 C 5.37 g/m*3 6.2 C 3.2 km/h
28 22-04-2021 04:15:00 5.9 C 5.34 g/m*3 4.63 C 6.4 km/h
29 22-04-2021 04:20:00 5.8 C 5.3 g/m*3 3.36 C 11.3 km/h
30 22-04-2021 04:25:00 5.7 C 5.27 g/m*3 3.93 C 8.1 km/h
31 22-04-2021 04:30:00 5.7 C 5.27 g/m*3 5.7 C 4.8 km/h
32 22-04-2021 04:35:00 5.6 C 5.23 g/m*3 4.29 C 6.4 km/h
33 22-04-2021 04:40:00 5.6 C 5.23 g/m*3 3.44 C 9.7 km/h
34 22-04-2021 04:45:00 5.5 C 5.2 g/m*3 5.5 C 4.8 km/h
35 22-04-2021 04:50:00 5.3 C 5.2 g/m*3 5.3 C 0 km/h
36 22-04-2021 04:55:00 5.2 C 5.16 g/m*3 5.2 C 0 km/h
37 22-04-2021 05:00:00 4.9 C 5.13 g/m*3 4.9 C 4.8 km/h
38 22-04-2021 05:05:00 4.7 C 5.13 g/m*3 4.7 C 0 km/h
39 22-04-2021 05:10:00 4.6 C 5.16 g/m*3 3.13 C 6.4 km/h
40 22-04-2021 05:15:00 4.5 C 5.13 g/m*3 4.5 C 1.6 km/h
41 22-04-2021 05:20:00 4.4 C 5.16 g/m*3 4.4 C 3.2 km/h
42 22-04-2021 05:25:00 4.3 C 5.12 g/m*3 4.3 C 1.6 km/h
43 22-04-2021 05:30:00 4.1 C 5.06 g/m*3 4.1 C 1.6 km/h
44 22-04-2021 05:35:00 3.9 C 5.05 g/m*3 3.9 C 0 km/h
45 22-04-2021 05:40:00 3.7 C 4.99 g/m*3 3.7 C 1.6 km/h
46 22-04-2021 05:45:00 3.6 C 5.01 g/m*3 3.6 C 1.6 km/h
47 22-04-2021 05:50:00 3.4 C 5.01 g/m*3 3.4 C 1.6 km/h
48 22-04-2021 05:55:00 3.3 C 4.97 g/m*3 3.3 C 3.2 km/h
49 22-04-2021 06:00:00 3.3 C 4.97 g/m*3 3.3 C 0 km/h
50 22-04-2021 06:05:00 3.2 C 4.94 g/m*3 3.2 C 0 km/h
Sensor: Nr:Datum:Temp:Abs-Feuchte:Windchill:Wind:
Aussen-T/F 51 22-04-2021 06:10:00 3.1 C 4.91 g/m*3 3.1 C 1.6 km/h
52 22-04-2021 06:15:00 3 C 4.93 g/m*3 3 C 1.6 km/h
53 22-04-2021 06:20:00 2.9 C 4.9 g/m*3 2.9 C 0 km/h
54 22-04-2021 06:25:00 2.8 C 4.87 g/m*3 2.8 C 0 km/h
55 22-04-2021 06:30:00 2.7 C 4.89 g/m*3 2.7 C 3.2 km/h
56 22-04-2021 06:35:00 2.7 C 4.89 g/m*3 2.7 C 0 km/h
57 22-04-2021 06:40:00 2.7 C 4.89 g/m*3 2.7 C 3.2 km/h
58 22-04-2021 06:45:00 2.7 C 4.95 g/m*3 2.7 C 3.2 km/h
59 22-04-2021 06:50:00 2.7 C 4.89 g/m*3 2.7 C 3.2 km/h
60 22-04-2021 06:55:00 2.6 C 4.92 g/m*3 2.6 C 0 km/h
61 22-04-2021 07:00:00 2.5 C 4.89 g/m*3 2.5 C 0 km/h
62 22-04-2021 07:05:00 2.5 C 4.89 g/m*3 2.5 C 3.2 km/h
63 22-04-2021 07:10:00 2.4 C 4.85 g/m*3 2.4 C 3.2 km/h
64 22-04-2021 07:15:00 2.5 C 4.89 g/m*3 2.5 C 1.6 km/h
65 22-04-2021 07:20:00 2.6 C 4.92 g/m*3 2.6 C 0 km/h
66 22-04-2021 07:25:00 2.7 C 4.95 g/m*3 2.7 C 3.2 km/h
67 22-04-2021 07:30:00 2.8 C 4.99 g/m*3 2.8 C 0 km/h
68 22-04-2021 07:35:00 2.9 C 5.02 g/m*3 2.9 C 1.6 km/h
69 22-04-2021 07:40:00 2.9 C 4.96 g/m*3 2.9 C 0 km/h
70 22-04-2021 07:45:00 3.1 C 5.09 g/m*3 3.1 C 0 km/h
71 22-04-2021 07:50:00 3.1 C 5.09 g/m*3 3.1 C 0 km/h
72 22-04-2021 07:55:00 3.2 C 5.12 g/m*3 3.2 C 0 km/h
73 22-04-2021 08:00:00 3.3 C 5.1 g/m*3 0.7 C 9.7 km/h
74 22-04-2021 08:05:00 3.6 C 5.14 g/m*3 1.98 C 6.4 km/h
75 22-04-2021 08:10:00 3.8 C 5.08 g/m*3 1.7 C 8.1 km/h
Sensor: Nr:Datum:Temp:Abs-Feuchte:Windchill:Wind:
Aussen-T/F 76 22-04-2021 08:15:00 4.2 C 5.09 g/m*3 2.67 C 6.4 km/h
77 22-04-2021 08:20:00 4.3 C 5.06 g/m*3 4.3 C 3.2 km/h
78 22-04-2021 08:25:00 4.5 C 5.06 g/m*3 4.5 C 4.8 km/h
79 22-04-2021 08:30:00 4.7 C 5.06 g/m*3 3.25 C 6.4 km/h
80 22-04-2021 08:35:00 4.8 C 5.03 g/m*3 3.36 C 6.4 km/h
81 22-04-2021 08:40:00 4.9 C 5 g/m*3 3.48 C 6.4 km/h
82 22-04-2021 08:45:00 4.9 C 4.93 g/m*3 2.27 C 11.3 km/h
83 22-04-2021 08:50:00 5 C 4.96 g/m*3 2.72 C 9.7 km/h
84 22-04-2021 08:55:00 5.1 C 4.99 g/m*3 3.23 C 8.1 km/h
85 22-04-2021 09:00:00 5.1 C 4.99 g/m*3 5.1 C 4.8 km/h
86 22-04-2021 09:05:00 5.2 C 5.03 g/m*3 5.2 C 4.8 km/h
87 22-04-2021 09:10:00 5.2 C 4.96 g/m*3 3.34 C 8.1 km/h
88 22-04-2021 09:15:00 5.3 C 4.99 g/m*3 3.94 C 6.4 km/h
89 22-04-2021 09:20:00 5.4 C 4.95 g/m*3 5.4 C 3.2 km/h
90 22-04-2021 09:25:00 5.6 C 5.02 g/m*3 3.44 C 9.7 km/h
91 22-04-2021 09:30:00 5.7 C 5.05 g/m*3 3.93 C 8.1 km/h
92 22-04-2021 09:35:00 5.9 C 4.98 g/m*3 3.48 C 11.3 km/h
93 22-04-2021 09:40:00 6.1 C 4.97 g/m*3 3.72 C 11.3 km/h
94 22-04-2021 09:45:00 6.2 C 5 g/m*3 4.15 C 9.7 km/h
95 22-04-2021 09:50:00 6.3 C 4.96 g/m*3 3.68 C 12.9 km/h
96 22-04-2021 09:55:00 6.4 C 4.99 g/m*3 3.8 C 12.9 km/h
97 22-04-2021 10:00:00 6.5 C 4.95 g/m*3 4.51 C 9.7 km/h
98 22-04-2021 10:05:00 6.6 C 5.06 g/m*3 4.32 C 11.3 km/h
99 22-04-2021 10:10:00 6.6 C 4.98 g/m*3 4.32 C 11.3 km/h
100 22-04-2021 10:15:00 6.7 C 5.01 g/m*3 4.44 C 11.3 km/h
Sensor: Nr:Datum:Temp:Abs-Feuchte:Windchill:Wind:
Aussen-T/F 101 22-04-2021 10:20:00 6.8 C 4.97 g/m*3 4.56 C 11.3 km/h
102 22-04-2021 10:25:00 6.9 C 5 g/m*3 4.68 C 11.3 km/h
103 22-04-2021 10:30:00 7 C 5.04 g/m*3 4.8 C 11.3 km/h
104 22-04-2021 10:35:00 7.1 C 4.99 g/m*3 5.23 C 9.7 km/h
105 22-04-2021 10:40:00 7.2 C 4.95 g/m*3 5.35 C 9.7 km/h
106 22-04-2021 10:45:00 7.2 C 4.87 g/m*3 4.77 C 12.9 km/h
107 22-04-2021 10:50:00 7.3 C 4.82 g/m*3 4.66 C 14.5 km/h
108 22-04-2021 10:55:00 7.4 C 4.77 g/m*3 5.02 C 12.9 km/h
109 22-04-2021 11:00:00 7.5 C 4.72 g/m*3 5.14 C 12.9 km/h
110 22-04-2021 11:05:00 7.6 C 4.83 g/m*3 4.81 C 16.1 km/h
111 22-04-2021 11:10:00 7.7 C 4.87 g/m*3 5.15 C 14.5 km/h
112 22-04-2021 11:15:00 7.8 C 4.9 g/m*3 5.51 C 12.9 km/h
113 22-04-2021 11:20:00 7.9 C 4.93 g/m*3 5.89 C 11.3 km/h
114 22-04-2021 11:25:00 7.9 C 5.01 g/m*3 5.63 C 12.9 km/h
115 22-04-2021 11:30:00 8.1 C 4.99 g/m*3 5.64 C 14.5 km/h
116 22-04-2021 11:35:00 8.2 C 5.02 g/m*3 7.29 C 6.4 km/h
117 22-04-2021 11:40:00 8.3 C 4.89 g/m*3 6.37 C 11.3 km/h
118 22-04-2021 11:45:00 8.5 C 4.95 g/m*3 6.13 C 14.5 km/h
119 22-04-2021 11:50:00 8.6 C 4.98 g/m*3 6.25 C 14.5 km/h
120 22-04-2021 11:55:00 8.7 C 5.02 g/m*3 6.6 C 12.9 km/h
121 22-04-2021 12:00:00 8.8 C 4.96 g/m*3 7.25 C 9.7 km/h
122 22-04-2021 12:05:00 8.9 C 4.99 g/m*3 7.09 C 11.3 km/h
123 22-04-2021 12:10:00 9.2 C 5.09 g/m*3 6.61 C 17.7 km/h
124 22-04-2021 12:15:00 9.2 C 5 g/m*3 6.79 C 16.1 km/h
125 22-04-2021 12:20:00 9.3 C 5.12 g/m*3 6.92 C 16.1 km/h
Sensor: Nr:Datum:Temp:Abs-Feuchte:Windchill:Wind:
Aussen-T/F 126 22-04-2021 12:25:00 9.4 C 4.97 g/m*3 7.24 C 14.5 km/h
127 22-04-2021 12:30:00 9.4 C 4.97 g/m*3 7.24 C 14.5 km/h
128 22-04-2021 12:35:00 9.4 C 4.97 g/m*3 8.68 C 6.4 km/h
129 22-04-2021 12:40:00 9.4 C 4.97 g/m*3 7.97 C 9.7 km/h
130 22-04-2021 12:45:00 9.4 C 4.97 g/m*3 7.46 C 12.9 km/h
131 22-04-2021 12:50:00 9.4 C 5.06 g/m*3 7.97 C 9.7 km/h
132 22-04-2021 12:55:00 9.6 C 4.95 g/m*3 7.48 C 14.5 km/h
133 22-04-2021 13:00:00 9.7 C 4.98 g/m*3 7.82 C 12.9 km/h
134 22-04-2021 13:05:00 9.9 C 5.04 g/m*3 8.56 C 9.7 km/h
135 22-04-2021 13:10:00 10 C 4.98 g/m*3 8.19 C 12.9 km/h
136 22-04-2021 13:15:00 10.1 C 5.01 g/m*3 8.1 C 14.5 km/h
137 22-04-2021 13:20:00 10.2 C 4.95 g/m*3 8.92 C 9.7 km/h
138 22-04-2021 13:25:00 10.3 C 4.88 g/m*3 8.78 C 11.3 km/h
139 22-04-2021 13:30:00 10.4 C 4.82 g/m*3 8.28 C 16.1 km/h
140 22-04-2021 13:35:00 10.4 C 4.72 g/m*3 8.47 C 14.5 km/h
141 22-04-2021 13:40:00 10.5 C 4.66 g/m*3 8.07 C 19.3 km/h
142 22-04-2021 13:45:00 10.7 C 4.71 g/m*3 8.32 C 19.3 km/h
143 22-04-2021 13:50:00 10.8 C 4.65 g/m*3 9.16 C 12.9 km/h
144 22-04-2021 13:55:00 10.9 C 4.67 g/m*3 9.28 C 12.9 km/h
145 22-04-2021 14:00:00 11.1 C 4.94 g/m*3 11.1 C 12.9 km/h
146 22-04-2021 14:05:00 11.4 C 4.93 g/m*3 11.4 C 14.5 km/h
147 22-04-2021 14:10:00 11.4 C 4.82 g/m*3 11.4 C 19.3 km/h
148 22-04-2021 14:15:00 11.4 C 5.03 g/m*3 11.4 C 11.3 km/h
149 22-04-2021 14:20:00 11.6 C 4.99 g/m*3 11.6 C 16.1 km/h
150 22-04-2021 14:25:00 11.8 C 5.05 g/m*3 11.8 C 14.5 km/h
Sensor: Nr:Datum:Temp:Abs-Feuchte:Windchill:Wind:
Aussen-T/F 151 22-04-2021 14:30:00 11.9 C 5.08 g/m*3 11.9 C 6.4 km/h
152 22-04-2021 14:35:00 12.1 C 4.93 g/m*3 12.1 C 12.9 km/h

Legende:
   Min
   Max


Maximal/Minimal-Werte vom 23.02.2003 - 30.09.2020

Sensor Min Max Avg
Temp
(Aussen-T/F)
-16.4 °C
20-12-2009  01:30:01
40.4 °C
25-07-2019  16:20:00
11.32 °C

Die Daten stammen von einer Davis Vantage Pro 2 Wetter-Station und werden unter Linux mit der Software wview2wettercgi und aufbereitet. Alle Angaben erfolgen ohne Gewähr für ihre Vollständigkeit oder Richtigkeit.
Kontakt: Rainer Krienke krienke@uni-koblenz.de . Meine Webseiten an der Uni Koblenz oder privat.
Version: $Revision: 0.78 $